Weather in Novocherkasskiy

Russia / Oryol Oblast     52°42′16″N   35°48′22″E
temp.,
°C
wind,
m/s
gust,
m/s
humid.,
%
clouds,
%
prec.,
mm/h
press.,
hPa
HPBL,
m
17 august, wed
wed1700:00+20ne3757100 0.0 1016126
03:00+21ne3755100 0.0 1014134
06:00+22ene51144100 0.0 1014282
09:00+22ene51249100 0.0 1014344
12:00+22e4954100 0.0 1015487
15:00+26e574395 0.0 1014937
18:00+21ne3757100 0.0 1014135
21:00+23e6134699 0.0 1014478
18 august, thu
thu1800:00+20ene495295 0.0 1013205
03:00+18ne4115953 0.0 1013221
06:00+20ne6145396 0.0 1013420
09:00+23ene8164814 0.0 1013814
12:00+28ene9133538 0.0 10121730
15:00+29ene9123688 0.0 10121983
18:00+26ene8134313 0.1 1013917
21:00+22ene715505 0.1 1014513
19 august, fri
fri1900:00+20ne5125310 0.0 1015370
03:00+20ene5135449 0.0 1015457
06:00+19ene7146959 0.0 1016667
09:00+19ene8118299 0.1 1017860
12:00+20ene71073100 0.1 10171269
15:00+20e8117498 0.2 1018875
18:00+19ene8127694 0.0 10181053
21:00+17e7148577 0.0 1019791
20 august, sat
sat2000:00+17e71283100 0.0 1018908
03:00+18e7157366 0.0 1018697
06:00+17e7157342 0.1 1018553
09:00+22se8135391 0.3 10181024
12:00+22se71152100 0.1 1019874
15:00+24ese71244100 0.1 10191146
18:00+23ese71445100 0.0 1019956
21:00+22ese101644100 0.0 10201077
21 august, sun
sun2100:00+22e61244100 0.0 1019509
03:00+22ese61333100 0.0 1019545
06:00+20ese51034100 0.0 1020363
09:00+20ese61232100 0.0 1020428
12:00+22ese61232100 0.0 1019652
15:00+27se71026100 0.0 10181560
18:00+23ese71526100 0.0 1018601
21:00+22ese71526100 0.0 1018424